Disclaimer

Please do not use the information listed here in-flight or in-navigation, as they are not provided to us by the airports but are provided by volunteers, so they might be outdated.

Search


Regions


Airport information page

Radio informations:
Tower (TWR) - 128.775 MHz
FIRE - 121.6 MHz
Automatic Terminal Information Service (ATIS) - 134.95 MHz
Approach (APP) - 126.225 MHz

Airport informations:
Latitude: 53° 28' 29.00" N
Longitude: 001° 00' 16.00" W
Elevation: 55 feet - 17 meters
Operating hours: Remarks
Operating agency: Civil government, landing fees and diplomatic clearance may be required
Timezone: UTC 0
Fuel: Jet A1+, Jet A1 with icing inhibitor.

100/130 MIL Spec, low lead, aviation gasoline (BLUE)

Runway information:
02/20 - 9491 x 197 feet< - >2893 x 60 meters

Recent METARs:
EGCN 152250Z 22014KT 9999 SCT028 09/06 Q1009
EGCN 152320Z 22013KT 9999 FEW032 09/06 Q1009
EGCN 152350Z 22014KT 9999 BKN030 10/06 Q1008

Airport on the map: